Sierra Vista, AZ

11:34 AM MST on October 22, 2017 (GMT -0700)
Sierra Vista Municipal-Libby Army Air Field

Weather History for KFHU - September, 2012

Change the Weather History Date:

Sunday, September 30, 2012

  Actual Average Record
Temperature  
Mean Temperature 74 °F -  
Max Temperature 84 °F 83 °F 96 °F (1996)
Min Temperature 63 °F 61 °F 47 °F (1986)
Cooling Degree Days 8    
Growing Degree Days 24 (Base 50)    
Moisture  
Dew Point 38 °F    
Average Humidity 29    
Maximum Humidity 46    
Minimum Humidity 14    
Precipitation  
Precipitation 0.00 in - - ()
Sea Level Pressure  
Sea Level Pressure 29.96 in    
Wind  
Wind Speed 7 mph (West)    
Max Wind Speed 13 mph    
Max Gust Speed 18 mph    
Visibility 10 miles    
Events      
Averages and records for this station are not official NWS values.
T = Trace of Precipitation, MM = Missing Value Source: NWS Daily Summary

Daily Weather History Graph

Daily Weather History Graph

Search for Another Location

Airport or City:

Trip Planner

Search our weather history database for the weather conditions in past years. The results will help you decide how hot, cold, wet, or windy it might be!

Date:

Astronomy

Sep. 30, 2012 Rise Set
Actual Time 6:14 AM MST 6:06 PM MST
Civil Twilight 5:50 AM MST 6:31 PM MST
Nautical Twilight 5:22 AM MST 6:59 PM MST
Astronomical Twilight 4:54 AM MST 7:27 PM MST
Moon 6:19 PM MST (9/30) 6:43 AM MST (9/30)
Length of Visible Light 12h 40m
Length of Day
11h 52m
Full, 100% of the Moon is Illuminated
Sep 30
Full
Oct 8
Last Quarter
Oct 15
New
Oct 21
First Quarter
Oct 29
Full

Hourly Weather History & Observations

Time (MST) Temp. Dew Point Humidity Pressure Visibility Wind Dir Wind Speed Gust Speed Precip Events Conditions
12:56 AM 66.0 °F 43.0 °F 43% 29.99 in 10.0 mi SW 5.8 mph - N/A   Clear
1:56 AM 64.9 °F 43.0 °F 45% 29.99 in 10.0 mi SW 6.9 mph - N/A   Clear
2:56 AM 64.0 °F 43.0 °F 46% 29.97 in 10.0 mi SW 8.1 mph - N/A   Clear
3:56 AM 64.0 °F 43.0 °F 46% 29.98 in 10.0 mi SW 8.1 mph - N/A   Clear
4:56 AM 64.0 °F 42.1 °F 45% 29.98 in 10.0 mi WSW 8.1 mph - N/A   Clear
5:56 AM 63.0 °F 41.0 °F 45% 29.99 in 10.0 mi West 5.8 mph - N/A   Clear
6:56 AM 64.9 °F 43.0 °F 45% 30.02 in 10.0 mi WSW 9.2 mph - N/A   Clear
7:56 AM 73.0 °F 44.1 °F 35% 30.01 in 10.0 mi West 6.9 mph - N/A   Clear
8:56 AM 75.0 °F 46.0 °F 36% 30.02 in 10.0 mi Variable 3.5 mph - N/A   Clear
9:56 AM 79.0 °F 43.0 °F 28% 30.01 in 10.0 mi Variable 3.5 mph - N/A   Clear
10:56 AM 81.0 °F 42.1 °F 25% 30.00 in 10.0 mi NNE 5.8 mph - N/A   Clear
11:56 AM 82.9 °F 39.9 °F 22% 29.98 in 10.0 mi NNE 9.2 mph - N/A   Clear
12:56 PM 82.9 °F 32.0 °F 16% 29.96 in 10.0 mi Variable 4.6 mph - N/A   Partly Cloudy
1:56 PM 84.9 °F 30.9 °F 14% 29.93 in 10.0 mi Variable 4.6 mph - N/A   Clear
2:56 PM 84.0 °F 33.1 °F 16% 29.92 in 10.0 mi Calm Calm - N/A   Clear
3:56 PM 84.9 °F 33.1 °F 16% 29.91 in 10.0 mi WNW 9.2 mph - N/A   Clear
4:56 PM 84.0 °F 30.9 °F 15% 29.90 in 10.0 mi NW 8.1 mph 18.4 mph N/A   Clear
5:56 PM 79.0 °F 33.1 °F 19% 29.92 in 10.0 mi NW 6.9 mph - N/A   Clear
6:56 PM 73.0 °F 33.1 °F 23% 29.94 in 10.0 mi West 9.2 mph - N/A   Clear
7:56 PM 72.0 °F 32.0 °F 23% 29.94 in 10.0 mi WSW 11.5 mph - N/A   Clear
8:56 PM 72.0 °F 32.0 °F 23% 29.95 in 10.0 mi West 12.7 mph - N/A   Clear
9:56 PM 71.1 °F 32.0 °F 24% 29.95 in 10.0 mi West 11.5 mph - N/A   Clear
10:56 PM 70.0 °F 32.0 °F 25% 29.94 in 10.0 mi West 11.5 mph - N/A   Clear
11:56 PM 68.0 °F 33.1 °F 27% 29.93 in 10.0 mi West 10.4 mph - N/A   Clear